Time,TemperatureF,DewpointF,PressureIn,WindDirection,WindDirectionDegrees,WindSpeedMPH,WindSpeedGustMPH,Humidity,HourlyPrecipIn,Conditions,Clouds,dailyrainin,SoftwareType,DateUTC
2013-03-14 00:07:00,52.1,33.0,30.30,NE,53,1.0,5.0,48,0.00,,,0.00,weatherlink.com 1.10,2013-03-14 06:07:00,
2013-03-14 00:22:00,51.4,33.0,30.30,ENE,58,2.0,5.0,49,0.00,,,0.00,weatherlink.com 1.10,2013-03-14 06:22:00,
2013-03-14 00:37:00,51.2,32.0,30.30,ENE,77,2.0,4.0,49,0.00,,,0.00,weatherlink.com 1.10,2013-03-14 06:37:00,
2013-03-14 00:52:00,51.0,33.0,30.30,East,89,2.0,4.0,50,0.00,,,0.00,weatherlink.com 1.10,2013-03-14 06:52:00,
2013-03-14 01:07:00,50.6,32.0,30.30,ENE,65,1.0,3.0,50,0.00,,,0.00,weatherlink.com 1.10,2013-03-14 07:07:00,
2013-03-14 01:22:00,50.3,33.0,30.30,East,88,2.0,3.0,51,0.00,,,0.00,weatherlink.com 1.10,2013-03-14 07:22:00,
2013-03-14 01:37:00,50.1,33.0,30.30,ENE,66,4.0,4.0,52,0.00,,,0.00,weatherlink.com 1.10,2013-03-14 07:37:00,
2013-03-14 01:53:00,50.0,33.0,30.30,East,85,1.0,4.0,52,0.00,,,0.00,weatherlink.com 1.10,2013-03-14 07:53:00,
2013-03-14 02:07:00,49.9,33.0,30.30,East,90,3.0,4.0,53,0.00,,,0.00,weatherlink.com 1.10,2013-03-14 08:07:00,
2013-03-14 02:22:00,49.8,33.0,30.30,East,81,2.0,4.0,53,0.00,,,0.00,weatherlink.com 1.10,2013-03-14 08:22:00,
2013-03-14 02:37:00,49.8,33.0,30.30,East,89,1.0,4.0,53,0.00,,,0.00,weatherlink.com 1.10,2013-03-14 08:37:00,
2013-03-14 02:52:00,49.4,34.0,30.29,East,85,1.0,3.0,55,0.00,,,0.00,weatherlink.com 1.10,2013-03-14 08:52:00,
2013-03-14 03:07:00,49.2,33.0,30.29,ESE,117,2.0,5.0,55,0.00,,,0.00,weatherlink.com 1.10,2013-03-14 09:07:00,
2013-03-14 03:22:00,49.3,34.0,30.29,SE,126,2.0,6.0,56,0.00,,,0.00,weatherlink.com 1.10,2013-03-14 09:22:00,
2013-03-14 03:37:00,49.4,34.0,30.29,ESE,112,5.0,7.0,56,0.00,,,0.00,weatherlink.com 1.10,2013-03-14 09:37:00,
2013-03-14 03:52:00,49.5,34.0,30.28,ESE,122,3.0,7.0,56,0.00,,,0.00,weatherlink.com 1.10,2013-03-14 09:52:00,
2013-03-14 04:07:00,49.1,34.0,30.28,East,96,3.0,5.0,56,0.00,,,0.00,weatherlink.com 1.10,2013-03-14 10:07:00,
2013-03-14 04:22:00,48.8,34.0,30.28,ESE,120,3.0,6.0,57,0.00,,,0.00,weatherlink.com 1.10,2013-03-14 10:22:00,
2013-03-14 04:37:00,48.4,34.0,30.28,ESE,116,4.0,5.0,58,0.00,,,0.00,weatherlink.com 1.10,2013-03-14 10:37:00,
2013-03-14 04:52:00,48.1,34.0,30.28,ESE,110,3.0,5.0,58,0.00,,,0.00,weatherlink.com 1.10,2013-03-14 10:52:00,
2013-03-14 05:07:00,48.1,34.0,30.28,ESE,116,3.0,6.0,59,0.00,,,0.00,weatherlink.com 1.10,2013-03-14 11:07:00,
2013-03-14 05:22:00,48.3,34.0,30.28,ESE,119,3.0,6.0,58,0.00,,,0.00,weatherlink.com 1.10,2013-03-14 11:22:00,
2013-03-14 05:37:00,48.4,34.0,30.28,ESE,108,4.0,6.0,58,0.00,,,0.00,weatherlink.com 1.10,2013-03-14 11:37:00,
2013-03-14 05:52:00,48.5,34.0,30.29,SE,132,2.0,5.0,58,0.00,,,0.00,weatherlink.com 1.10,2013-03-14 11:52:00,
2013-03-14 06:07:00,48.2,34.0,30.29,ESE,121,3.0,6.0,58,0.00,,,0.00,weatherlink.com 1.10,2013-03-14 12:07:00,
2013-03-14 06:22:00,47.8,34.0,30.29,ESE,116,3.0,4.0,60,0.00,,,0.00,weatherlink.com 1.10,2013-03-14 12:22:00,
2013-03-14 06:37:00,47.6,35.0,30.29,ESE,113,4.0,5.0,61,0.00,,,0.00,weatherlink.com 1.10,2013-03-14 12:37:00,
2013-03-14 06:52:00,47.9,35.0,30.30,ESE,120,3.0,6.0,61,0.00,,,0.00,weatherlink.com 1.10,2013-03-14 12:52:00,
2013-03-14 07:07:00,49.0,35.0,30.30,SE,131,5.0,6.0,60,0.00,,,0.00,weatherlink.com 1.10,2013-03-14 13:07:00,
2013-03-14 07:22:00,50.4,36.0,30.31,ESE,119,4.0,5.0,58,0.00,,,0.00,weatherlink.com 1.10,2013-03-14 13:22:00,
2013-03-14 07:38:00,51.8,37.0,30.32,ESE,122,4.0,7.0,57,0.00,,,0.00,weatherlink.com 1.10,2013-03-14 13:38:00,
2013-03-14 07:53:00,53.4,38.0,30.32,SE,133,2.0,7.0,57,0.00,,,0.00,weatherlink.com 1.10,2013-03-14 13:53:00,
2013-03-14 08:08:00,54.7,39.0,30.32,SE,125,2.0,6.0,55,0.00,,,0.00,weatherlink.com 1.10,2013-03-14 14:08:00,
2013-03-14 08:23:00,55.7,40.0,30.33,SE,124,3.0,8.0,55,0.00,,,0.00,weatherlink.com 1.10,2013-03-14 14:23:00,
2013-03-14 08:38:00,58.0,41.0,30.33,SE,136,3.0,6.0,53,0.00,,,0.00,weatherlink.com 1.10,2013-03-14 14:38:00,
2013-03-14 08:53:00,60.2,42.0,30.33,SE,146,3.0,7.0,51,0.00,,,0.00,weatherlink.com 1.10,2013-03-14 14:53:00,
2013-03-14 09:08:00,61.4,42.0,30.33,South,169,5.0,7.0,50,0.00,,,0.00,weatherlink.com 1.10,2013-03-14 15:08:00,
2013-03-14 09:23:00,61.9,42.0,30.32,South,190,7.0,10.0,48,0.00,,,0.00,weatherlink.com 1.10,2013-03-14 15:23:00,
2013-03-14 09:38:00,62.4,42.0,30.32,SSW,203,8.0,12.0,48,0.00,,,0.00,weatherlink.com 1.10,2013-03-14 15:38:00,
2013-03-14 09:53:00,63.5,42.0,30.32,SSW,194,7.0,11.0,46,0.00,,,0.00,weatherlink.com 1.10,2013-03-14 15:53:00,
2013-03-14 10:08:00,64.4,41.0,30.31,South,188,9.0,15.0,43,0.00,,,0.00,weatherlink.com 1.10,2013-03-14 16:08:00,
2013-03-14 10:23:00,65.2,44.0,30.31,SSW,194,4.0,11.0,46,0.00,,,0.00,weatherlink.com 1.10,2013-03-14 16:23:00,
2013-03-14 10:38:00,66.0,43.0,30.31,SE,146,5.0,14.0,43,0.00,,,0.00,weatherlink.com 1.10,2013-03-14 16:38:00,
2013-03-14 10:53:00,66.2,43.0,30.31,SE,136,4.0,13.0,44,0.00,,,0.00,weatherlink.com 1.10,2013-03-14 16:53:00,
2013-03-14 11:08:00,67.4,44.0,30.30,SW,225,6.0,13.0,43,0.00,,,0.00,weatherlink.com 1.10,2013-03-14 17:08:00,
2013-03-14 11:23:00,68.4,44.0,30.30,SSW,212,7.0,15.0,42,0.00,,,0.00,weatherlink.com 1.10,2013-03-14 17:23:00,
2013-03-14 11:38:00,69.2,43.0,30.30,SW,224,11.0,11.0,39,0.00,,,0.00,weatherlink.com 1.10,2013-03-14 17:38:00,
2013-03-14 11:53:00,69.4,45.0,30.29,SSE,155,6.0,11.0,41,0.00,,,0.00,weatherlink.com 1.10,2013-03-14 17:53:00,
2013-03-14 12:08:00,70.3,44.0,30.28,South,176,7.0,12.0,39,0.00,,,0.00,weatherlink.com 1.10,2013-03-14 18:08:00,
2013-03-14 12:23:00,70.0,44.0,30.27,SSW,212,8.0,15.0,40,0.00,,,0.00,weatherlink.com 1.10,2013-03-14 18:23:00,
2013-03-14 12:38:00,70.6,46.0,30.27,SSW,200,6.0,14.0,41,0.00,,,0.00,weatherlink.com 1.10,2013-03-14 18:38:00,
2013-03-14 12:54:00,70.7,44.0,30.26,SW,224,12.0,15.0,39,0.00,,,0.00,weatherlink.com 1.10,2013-03-14 18:54:00,
2013-03-14 13:09:00,71.0,45.0,30.25,SSW,205,6.0,14.0,40,0.00,,,0.00,weatherlink.com 1.10,2013-03-14 19:09:00,
2013-03-14 13:24:00,71.5,46.0,30.24,SSW,207,5.0,13.0,40,0.00,,,0.00,weatherlink.com 1.10,2013-03-14 19:24:00,
2013-03-14 13:39:00,71.9,46.0,30.23,SW,231,12.0,19.0,39,0.00,,,0.00,weatherlink.com 1.10,2013-03-14 19:39:00,
2013-03-14 13:54:00,72.5,46.0,30.22,SSW,197,9.0,13.0,39,0.00,,,0.00,weatherlink.com 1.10,2013-03-14 19:54:00,
2013-03-14 14:09:00,72.6,47.0,30.21,SSE,153,5.0,12.0,40,0.00,,,0.00,weatherlink.com 1.10,2013-03-14 20:09:00,
2013-03-14 14:24:00,72.9,47.0,30.20,South,191,4.0,13.0,40,0.00,,,0.00,weatherlink.com 1.10,2013-03-14 20:24:00,
2013-03-14 14:39:00,72.8,47.0,30.20,SSW,203,7.0,15.0,40,0.00,,,0.00,weatherlink.com 1.10,2013-03-14 20:39:00,
2013-03-14 14:54:00,73.2,47.0,30.20,SE,129,6.0,12.0,40,0.00,,,0.00,weatherlink.com 1.10,2013-03-14 20:54:00,
2013-03-14 15:09:00,73.4,47.0,30.19,SW,232,4.0,10.0,39,0.00,,,0.00,weatherlink.com 1.10,2013-03-14 21:09:00,
2013-03-14 15:24:00,73.6,49.0,30.19,SSW,208,5.0,13.0,42,0.00,,,0.00,weatherlink.com 1.10,2013-03-14 21:24:00,
2013-03-14 15:39:00,73.8,49.0,30.18,SW,217,10.0,11.0,41,0.00,,,0.00,weatherlink.com 1.10,2013-03-14 21:39:00,
2013-03-14 15:54:00,73.3,49.0,30.18,SSE,166,4.0,10.0,42,0.00,,,0.00,weatherlink.com 1.10,2013-03-14 21:54:00,
2013-03-14 16:09:00,73.5,50.0,30.17,SSE,152,3.0,12.0,44,0.00,,,0.00,weatherlink.com 1.10,2013-03-14 22:09:00,
2013-03-14 16:24:00,73.4,49.0,30.17,SE,144,6.0,10.0,42,0.00,,,0.00,weatherlink.com 1.10,2013-03-14 22:24:00,
2013-03-14 16:39:00,73.2,50.0,30.17,South,186,2.0,10.0,44,0.00,,,0.00,weatherlink.com 1.10,2013-03-14 22:39:00,
2013-03-14 16:54:00,73.4,48.0,30.17,SSW,200,8.0,9.0,41,0.00,,,0.00,weatherlink.com 1.10,2013-03-14 22:54:00,
2013-03-14 17:24:00,72.7,48.0,30.16,SE,143,5.0,8.0,42,0.00,,,0.00,weatherlink.com 1.10,2013-03-14 23:24:00,
2013-03-14 17:39:00,72.2,47.0,30.16,SW,214,3.0,9.0,41,0.00,,,0.00,weatherlink.com 1.10,2013-03-14 23:39:00,
2013-03-14 17:54:00,71.3,47.0,30.16,SE,141,4.0,8.0,42,0.00,,,0.00,weatherlink.com 1.10,2013-03-14 23:54:00,
2013-03-14 18:09:00,70.3,46.0,30.16,SE,139,5.0,7.0,42,0.00,,,0.00,weatherlink.com 1.10,2013-03-15 00:09:00,
2013-03-14 18:24:00,69.2,46.0,30.16,SSE,149,3.0,6.0,44,0.00,,,0.00,weatherlink.com 1.10,2013-03-15 00:24:00,
2013-03-14 18:39:00,68.0,46.0,30.15,SW,217,2.0,5.0,46,0.00,,,0.00,weatherlink.com 1.10,2013-03-15 00:39:00,
2013-03-14 18:54:00,66.8,46.0,30.15,SSE,153,3.0,4.0,48,0.00,,,0.00,weatherlink.com 1.10,2013-03-15 00:54:00,
2013-03-14 19:09:00,65.8,46.0,30.15,SE,143,1.0,5.0,49,0.00,,,0.00,weatherlink.com 1.10,2013-03-15 01:09:00,
2013-03-14 19:24:00,65.4,46.0,30.15,SE,146,2.0,3.0,50,0.00,,,0.00,weatherlink.com 1.10,2013-03-15 01:24:00,
2013-03-14 19:39:00,65.0,46.0,30.15,SE,132,1.0,2.0,51,0.00,,,0.00,weatherlink.com 1.10,2013-03-15 01:39:00,
2013-03-14 19:54:00,64.5,46.0,30.15,SE,132,1.0,3.0,52,0.00,,,0.00,weatherlink.com 1.10,2013-03-15 01:54:00,
2013-03-14 20:09:00,64.2,46.0,30.14,ESE,121,3.0,4.0,52,0.00,,,0.00,weatherlink.com 1.10,2013-03-15 02:09:00,
2013-03-14 20:24:00,64.2,46.0,30.14,ESE,113,2.0,4.0,52,0.00,,,0.00,weatherlink.com 1.10,2013-03-15 02:24:00,
2013-03-14 20:39:00,63.5,46.0,30.15,ESE,112,2.0,3.0,53,0.00,,,0.00,weatherlink.com 1.10,2013-03-15 02:39:00,
2013-03-14 20:55:00,62.4,46.0,30.15,ESE,115,3.0,5.0,55,0.00,,,0.00,weatherlink.com 1.10,2013-03-15 02:55:00,
2013-03-14 21:10:00,62.3,46.0,30.15,ESE,116,2.0,4.0,55,0.00,,,0.00,weatherlink.com 1.10,2013-03-15 03:10:00,
2013-03-14 21:25:00,61.5,46.0,30.15,East,95,2.0,4.0,57,0.00,,,0.00,weatherlink.com 1.10,2013-03-15 03:25:00,
2013-03-14 21:40:00,61.2,46.0,30.15,East,99,2.0,3.0,58,0.00,,,0.00,weatherlink.com 1.10,2013-03-15 03:40:00,
2013-03-14 21:55:00,60.8,47.0,30.15,ESE,105,3.0,4.0,60,0.00,,,0.00,weatherlink.com 1.10,2013-03-15 03:55:00,
2013-03-14 22:10:00,60.7,47.0,30.15,ESE,122,3.0,4.0,60,0.00,,,0.00,weatherlink.com 1.10,2013-03-15 04:10:00,
2013-03-14 22:25:00,60.3,47.0,30.14,SSE,150,4.0,5.0,61,0.00,,,0.00,weatherlink.com 1.10,2013-03-15 04:25:00,
2013-03-14 22:40:00,60.4,47.0,30.14,ESE,118,3.0,6.0,62,0.00,,,0.00,weatherlink.com 1.10,2013-03-15 04:40:00,
2013-03-14 22:55:00,60.0,47.0,30.14,SE,131,3.0,5.0,62,0.00,,,0.00,weatherlink.com 1.10,2013-03-15 04:55:00,
2013-03-14 23:10:00,59.6,47.0,30.14,SE,127,2.0,5.0,63,0.00,,,0.00,weatherlink.com 1.10,2013-03-15 05:10:00,
2013-03-14 23:25:00,59.5,47.0,30.14,SE,132,1.0,4.0,63,0.00,,,0.00,weatherlink.com 1.10,2013-03-15 05:25:00,
2013-03-14 23:40:00,59.3,47.0,30.14,SE,129,3.0,5.0,64,0.00,,,0.00,weatherlink.com 1.10,2013-03-15 05:40:00,
2013-03-14 23:55:00,59.1,47.0,30.14,SE,124,3.0,5.0,64,0.00,,,0.00,weatherlink.com 1.10,2013-03-15 05:55:00,